Tracking 19720 objects as of 27-Jun-2019
HD Live streaming from Space Station
objects crossing your sky now

FLOCK 3P 47

Track FLOCK 3P 47 now!
10-day predictions
FLOCK 3P 47 is classified as:


NORAD ID: 42032
Int'l Code: 2017-008CN
Perigee: 490.4 km
Apogee: 503.0 km
Inclination: 97.4 °
Period: 94.4 minutes
Semi major axis: 6867 km
RCS: Unknown
Launch date: February 15, 2017
Source: United States (US)
Launch site: SRIHARIKOTA (SRI)
aabbcc
Your satellite tracking list
Your tracking list is empty




NASA's NSSDC Master Catalog

Two Line Element Set (TLE):
1 42032U 17008CN  19177.14105891  .00000877  00000-0  37541-4 0  9997
2 42032  97.4061 244.1414 0009226 128.1140 232.0932 15.25405390130926
Source of the keplerian elements: AFSPC